Powrót do katalogu

CHIPSAT

AktywnyNaukaPO
NORAD 27643·PAYLOAD·🇺🇸 United States

Wystrzelony Jan 13, 2003 z Vandenberg Space Force Base

Loading…

Następne Przeloty (najbliższe 24 godziny)

TLE

ŚwieżeSource: Space-Track

Epoka: Sep 14, 2026, 14:51 UTC

1 27643U 03002B   26257.61875510  .00020078  00000-0  34073-3 0  9999
2 27643  94.0354  32.7446 0007118 143.3494 216.8253 15.51425349301044

Śledź CHIPSAT w czasie rzeczywistym z AllMySat

Download on the App Store